FW7194 Weather Reports


Display with metric or nautical units.
time (UTC)temp
F
wind
direction
speed
MPH
gust
MPH
rain 1hr
in
rain 24hr
in
rain mn
in
humidity
%
barometer
mb
20260903093643 76 230 0.0 0.0 0.00 0.00 0.00 94 1017.2
20260903093138 76 230 0.0 0.0 0.00 0.00 0.00 94 1017.1
20260903092633 76 226 0.0 0.0 0.00 0.00 0.00 94 1017.2
20260903092127 76 219 0.0 0.0 0.00 0.00 0.00 93 1017.1
20260903091626 76 229 0.0 0.0 0.00 0.00 0.00 93 1017.2
20260903091120 76 231 0.0 0.0 0.00 0.00 0.00 93 1016.8
20260903090616 76 219 0.0 0.0 0.00 0.00 0.00 93 1017.0
20260903090115 76 219 0.0 0.0 0.00 0.00 0.00 93 1017.1
20260903085614 76 222 0.0 0.0 0.00 0.00 0.00 93 1017.0
20260903085109 76 208 0.0 0.0 0.00 0.00 0.00 93 1016.6
20260903084607 76 208 0.0 0.0 0.00 0.00 0.00 93 1016.6
20260903084102 76 218 0.0 0.0 0.00 0.00 0.00 93 1016.5
20260903083552 76 218 0.0 0.0 0.00 0.00 0.00 93 1016.4
20260903083052 76 218 0.0 0.0 0.00 0.00 0.00 93 1016.7
20260903082546 76 218 0.0 0.0 0.00 0.00 0.00 93 1016.6
20260903082042 76 226 0.0 0.0 0.00 0.00 0.00 93 1016.8
20260903081537 76 223 0.0 0.0 0.00 0.00 0.00 93 1016.9
20260903081032 76 221 0.0 0.0 0.00 0.00 0.00 93 1016.9
20260903080529 76 222 0.0 0.0 0.00 0.00 0.00 93 1016.9
20260903080025 76 217 0.0 0.0 0.00 0.00 0.00 93 1016.9
20260903075519 76 212 0.0 0.0 0.00 0.00 0.00 93 1016.7
20260903075015 76 214 0.0 0.0 0.00 0.00 0.00 93 1016.6
20260903074515 76 213 0.0 0.0 0.00 0.00 0.00 93 1016.8
20260903074014 76 214 0.0 0.0 0.00 0.00 0.00 93 1016.6
20260903073505 76 216 0.0 0.0 0.00 0.00 0.00 93 1016.5
20260903073001 76 220 0.0 0.0 0.00 0.00 0.00 92 1016.5
20260903072456 76 220 0.0 0.0 0.00 0.00 0.00 92 1016.3
20260903071953 76 218 0.0 0.0 0.00 0.00 0.00 92 1016.5
20260903071449 76 218 0.0 0.0 0.00 0.00 0.00 92 1016.5
20260903070944 76 219 0.0 0.0 0.00 0.00 0.00 92 1016.7
20260903070443 76 223 0.0 0.0 0.00 0.00 0.00 92 1016.5
20260903065938 77 218 0.0 0.0 0.00 0.00 0.00 92 1016.7
20260903065433 77 226 0.0 0.0 0.00 0.00 0.00 92 1016.4
20260903064932 76 210 0.0 0.0 0.00 0.00 0.00 92 1016.4
20260903064427 77 205 0.0 0.0 0.00 0.00 0.00 92 1016.4
20260903063923 77 205 0.0 0.0 0.00 0.00 0.00 92 1016.1
20260903063418 77 210 0.0 0.0 0.00 0.00 0.00 92 1016.2
20260903062913 77 224 0.0 0.0 0.00 0.00 0.00 92 1016.3
20260903062408 77 221 0.0 0.0 0.00 0.00 0.00 92 1016.3
20260903061904 77 217 0.0 0.0 0.00 0.00 0.00 92 1016.3
20260903061403 77 223 0.0 0.0 0.00 0.00 0.00 92 1016.4
20260903060859 77 224 0.0 0.0 0.00 0.00 0.00 92 1016.5
20260903060359 77 225 0.0 0.0 0.00 0.00 0.00 91 1016.4
20260903055856 77 221 0.0 0.0 0.00 0.00 0.00 91 1016.3
20260903055355 77 221 0.0 0.0 0.00 0.00 0.00 91 1016.3
20260903054850 77 221 0.0 0.0 0.00 0.00 0.00 91 1016.2
20260903054349 77 221 0.0 0.0 0.00 0.00 0.00 91 1016.4
20260903053846 77 221 0.0 0.0 0.00 0.00 0.00 91 1016.3
20260903053341 77 222 0.0 0.0 0.00 0.00 0.00 91 1016.7
20260903052837 77 222 0.0 0.0 0.00 0.00 0.00 91 1016.6
20260903052332 77 220 0.0 0.0 0.00 0.00 0.00 91 1016.6
20260903051828 77 212 0.0 0.0 0.00 0.00 0.00 91 1016.5
20260903051323 77 214 0.0 0.0 0.00 0.00 0.00 91 1016.5
20260903050819 77 210 0.0 0.0 0.00 0.00 0.00 91 1016.4
20260903050318 77 213 0.0 0.0 0.00 0.00 0.00 90 1016.7
20260903045813 77 223 0.0 0.0 0.00 0.00 0.00 90 1016.9
20260903045308 77 224 0.0 0.0 0.00 0.00 0.00 90 1017.0
20260903044804 77 224 0.0 0.0 0.00 0.00 0.00 90 1017.3
20260903044259 77 221 0.0 0.0 0.00 0.00 0.00 90 1016.9
20260903043756 77 225 0.0 0.0 0.00 0.00 0.00 90 1017.1
20260903043255 77 227 0.0 0.0 0.00 0.00 0.00 90 1017.0
20260903042755 78 218 0.0 0.0 0.00 0.00 0.00 90 1017.2
20260903042250 78 210 0.0 0.0 0.00 0.00 0.00 90 1017.2
20260903041746 78 208 0.0 0.0 0.00 0.00 0.00 90 1017.2
20260903041242 78 206 0.0 0.0 0.00 0.00 0.00 89 1017.3
20260903040737 78 226 0.0 0.0 0.00 0.00 0.00 89 1017.3
20260903040237 78 226 0.0 0.0 0.00 0.00 0.00 89 1017.3
20260903035732 78 221 0.0 0.0 0.00 0.00 0.00 89 1017.4
20260903035228 78 220 0.0 0.0 0.00 0.00 0.00 89 1017.5
20260903034723 78 221 0.0 0.0 0.00 0.00 0.00 89 1017.4
20260903034218 78 220 0.0 0.0 0.00 0.00 0.00 89 1017.5
20260903033713 78 216 0.0 0.0 0.00 0.00 0.00 89 1017.6
20260903033208 78 208 0.0 0.0 0.00 0.00 0.00 89 1017.7
20260903032703 78 207 0.0 0.0 0.00 0.00 0.00 88 1017.6
20260903032158 78 217 0.0 0.0 0.00 0.00 0.00 88 1017.8
20260903031653 78 219 0.0 0.0 0.00 0.00 0.00 88 1017.7
20260903031148 78 218 0.0 0.0 0.00 0.00 0.00 88 1018.0
20260903030644 78 236 0.0 0.0 0.00 0.00 0.00 88 1018.2
20260903030139 78 237 0.0 0.0 0.00 0.00 0.00 88 1018.1
20260903025634 78 237 0.0 0.0 0.00 0.00 0.00 87 1018.0
20260903025130 78 216 0.0 0.0 0.00 0.00 0.00 87 1018.1
20260903024625 78 216 0.0 0.0 0.00 0.00 0.00 87 1018.1
20260903024124 78 216 0.0 0.0 0.00 0.00 0.00 87 1018.0
20260903023620 79 215 0.0 0.0 0.00 0.00 0.00 87 1018.0
20260903023120 79 215 0.0 0.0 0.00 0.00 0.00 87 1018.3
20260903022615 79 218 0.0 0.0 0.00 0.00 0.00 87 1018.0
20260903022114 79 221 0.0 0.0 0.00 0.00 0.00 86 1018.1
20260903021608 79 218 0.0 0.0 0.00 0.00 0.00 86 1018.2
20260903021103 79 214 0.0 0.0 0.00 0.00 0.00 86 1017.9
20260903020558 79 213 0.0 0.0 0.00 0.00 0.00 86 1017.8
20260903020058 79 214 0.0 0.0 0.00 0.00 0.00 86 1018.0
20260903015554 79 201 0.0 0.0 0.00 0.00 0.00 85 1018.2
20260903015049 79 159 0.0 0.0 0.00 0.00 0.00 85 1017.9
20260903014549 79 227 0.0 0.0 0.00 0.00 0.00 85 1018.1
20260903014038 79 222 0.0 0.0 0.00 0.00 0.00 85 1017.9
20260903013537 80 221 0.0 0.0 0.00 0.00 0.00 85 1017.9
20260903013032 80 221 0.0 0.0 0.00 0.00 0.00 84 1018.0
20260903012526 80 220 0.0 0.0 0.00 0.00 0.00 84 1017.7
20260903012025 80 219 0.0 0.0 0.00 0.00 0.00 84 1017.9
20260903011524 80 221 0.0 0.0 0.00 0.00 0.00 84 1017.8
20260903011019 80 231 0.0 0.0 0.00 0.00 0.00 83 1017.9
20260903010515 80 223 0.0 0.0 0.00 0.00 0.00 83 1017.7
20260903010014 80 219 0.0 0.0 0.00 0.00 0.00 83 1017.6
20260903005514 80 218 0.0 0.0 0.00 0.00 0.00 83 1017.4
20260903005010 81 218 0.0 0.0 0.00 0.00 0.00 82 1017.4
20260903004510 81 218 0.0 0.0 0.00 0.00 0.00 82 1017.3
20260903004005 81 221 0.0 0.0 0.00 0.00 0.00 82 1017.2
20260903003500 81 221 0.0 0.0 0.00 0.00 0.00 81 1017.3
20260903002956 82 222 0.0 0.0 0.00 0.00 0.00 81 1017.3
20260903002455 82 228 0.0 0.0 0.00 0.00 0.00 81 1017.3
20260903001954 82 224 0.0 0.0 0.00 0.00 0.00 80 1017.2
20260903001450 82 225 0.0 0.0 0.00 0.00 0.00 80 1017.1
20260903000944 82 209 0.0 0.0 0.00 0.00 0.00 80 1017.2
20260903000439 83 214 0.0 0.0 0.00 0.00 0.00 80 1017.0
20260902235937 83 193 0.0 0.0 0.00 0.00 0.00 79 1017.2
20260902235432 83 181 0.0 1.0 0.00 0.00 0.00 79 1016.8
20260902234932 83 203 0.0 0.0 0.00 0.00 0.00 78 1017.0
20260902234428 84 207 0.0 2.0 0.00 0.00 0.00 78 1016.8
20260902233926 84 125 1.0 2.0 0.00 0.00 0.00 78 1016.8
20260902233421 84 145 0.0 1.0 0.00 0.00 0.00 77 1016.8
20260902232920 84 171 0.0 1.0 0.00 0.00 0.00 77 1017.0
20260902232415 84 199 0.0 2.0 0.00 0.00 0.00 77 1016.7
20260902231914 84 192 1.0 3.0 0.00 0.00 0.00 76 1016.8
20260902231409 84 192 0.0 2.0 0.00 0.00 0.00 76 1017.0
20260902230858 85 190 3.0 5.0 0.00 0.00 0.00 76 1016.6
20260902230358 85 223 0.0 3.0 0.00 0.00 0.00 75 1016.7
20260902225852 85 183 3.0 3.0 0.00 0.00 0.00 74 1016.5
20260902225347 85 153 1.0 3.0 0.00 0.00 0.00 74 1016.9
20260902224846 85 162 1.0 6.0 0.00 0.00 0.00 73 1016.9
20260902224340 86 207 0.0 5.0 0.00 0.00 0.00 72 1016.9
20260902223837 86 206 6.0 8.0 0.00 0.00 0.00 72 1016.8
20260902223331 86 187 1.0 5.0 0.00 0.00 0.00 72 1016.6
20260902222831 86 203 6.0 8.0 0.00 0.00 0.00 71 1016.9
20260902222330 86 196 5.0 6.0 0.00 0.00 0.00 71 1017.1
20260902221825 86 189 3.0 6.0 0.00 0.00 0.00 70 1017.2
20260902221324 86 203 3.0 5.0 0.00 0.00 0.00 70 1017.0
20260902220819 86 118 4.0 5.0 0.00 0.00 0.00 69 1017.1
20260902220318 86 186 3.0 5.0 0.00 0.00 0.00 69 1017.0
20260902215815 86 195 4.0 6.0 0.00 0.00 0.00 68 1017.0
20260902215315 86 136 5.0 7.0 0.00 0.00 0.00 67 1017.1
20260902214811 87 151 3.0 7.0 0.00 0.00 0.00 67 1017.0
20260902214310 87 162 3.0 8.0 0.00 0.00 0.00 67 1016.9
20260902213805 87 233 3.0 6.0 0.00 0.00 0.00 67 1017.1
20260902213301 87 128 1.0 7.0 0.00 0.00 0.00 68 1017.2
20260902212759 87 213 3.0 8.0 0.00 0.00 0.00 68 1017.1
20260902212256 87 147 5.0 6.0 0.00 0.00 0.00 68 1017.1
20260902211752 87 223 3.0 7.0 0.00 0.00 0.00 67 1016.9
20260902211247 87 145 4.0 7.0 0.00 0.00 0.00 67 1017.2
20260902210742 87 212 4.0 6.0 0.00 0.00 0.00 67 1017.2
20260902210237 87 229 4.0 7.0 0.00 0.00 0.00 67 1017.2
20260902205734 87 113 3.0 5.0 0.00 0.00 0.00 66 1017.3
20260902205224 87 206 3.0 6.0 0.00 0.00 0.00 66 1017.4
20260902204719 87 192 6.0 7.0 0.00 0.00 0.00 66 1017.4
20260902204214 88 199 5.0 6.0 0.00 0.00 0.00 66 1017.4
20260902203709 88 295 1.0 5.0 0.00 0.00 0.00 66 1017.2
20260902203204 88 202 3.0 6.0 0.00 0.00 0.00 66 1017.4
20260902202659 88 188 5.0 8.0 0.00 0.00 0.00 67 1017.4
20260902202156 88 179 4.0 8.0 0.00 0.00 0.00 68 1017.1
20260902201652 88 163 4.0 7.0 0.00 0.00 0.00 68 1017.1
20260902201150 88 148 5.0 7.0 0.00 0.00 0.00 69 1017.5
20260902200646 88 196 5.0 7.0 0.00 0.00 0.00 69 1017.4
20260902200141 88 183 5.0 8.0 0.00 0.00 0.00 70 1017.5
20260902195636 88 207 4.0 6.0 0.00 0.00 0.00 70 1017.3
20260902195131 88 184 4.0 7.0 0.00 0.00 0.00 70 1017.4
20260902194629 88 243 2.0 6.0 0.00 0.00 0.00 70 1017.7
20260902194125 88 116 3.0 7.0 0.00 0.00 0.00 70 1017.5
20260902193620 89 181 4.0 7.0 0.00 0.00 0.00 71 1017.5
20260902193115 89 155 2.0 5.0 0.00 0.00 0.00 72 1017.8
20260902192614 89 222 3.0 6.0 0.00 0.00 0.00 72 1017.7
20260902192112 89 125 5.0 8.0 0.00 0.00 0.00 72 1017.8
20260902191608 89 21 2.0 6.0 0.00 0.00 0.00 72 1017.8
20260902191102 89 180 6.0 7.0 0.00 0.00 0.00 73 1017.9
20260902190558 89 216 2.0 5.0 0.00 0.00 0.00 73 1017.9
20260902190053 89 211 3.0 5.0 0.00 0.00 0.00 73 1017.9
20260902185549 89 195 2.0 5.0 0.00 0.00 0.00 73 1017.8
20260902185045 89 229 2.0 6.0 0.00 0.00 0.00 74 1017.9
20260902184545 89 183 3.0 5.0 0.00 0.00 0.00 74 1017.9
20260902184040 89 161 3.0 5.0 0.00 0.00 0.00 74 1018.1
20260902183537 89 216 2.0 5.0 0.00 0.00 0.00 75 1018.0
20260902183033 89 187 1.0 3.0 0.00 0.00 0.00 75 1018.0
20260902182528 89 207 1.0 2.0 0.00 0.00 0.00 75 1018.2
20260902182024 89 193 5.0 6.0 0.00 0.00 0.00 75 1018.3
20260902181520 90 218 2.0 6.0 0.00 0.00 0.00 75 1018.4
20260902181014 90 124 5.0 6.0 0.00 0.00 0.00 74 1018.3
20260902180514 90 83 4.0 6.0 0.00 0.00 0.00 74 1018.3
20260902180011 90 124 3.0 6.0 0.00 0.00 0.00 74 1018.3
20260902175510 90 187 2.0 7.0 0.00 0.00 0.00 74 1018.4
20260902175007 90 191 1.0 5.0 0.00 0.00 0.00 74 1018.1
20260902174503 90 193 3.0 6.0 0.00 0.00 0.00 73 1018.3
20260902173958 90 180 1.0 5.0 0.00 0.00 0.00 73 1018.4
20260902173457 90 186 3.0 6.0 0.00 0.00 0.00 73 1018.2
20260902172953 90 184 2.0 7.0 0.00 0.00 0.00 73 1018.4
20260902172452 90 128 3.0 6.0 0.00 0.00 0.00 72 1018.3
20260902171947 90 202 1.0 2.0 0.00 0.00 0.00 71 1018.4
20260902171443 91 218 2.0 6.0 0.00 0.00 0.00 72 1018.3
20260902170938 91 193 3.0 7.0 0.00 0.00 0.00 71 1018.5
20260902170433 91 176 5.0 8.0 0.00 0.00 0.00 71 1018.6
20260902165929 91 149 3.0 7.0 0.00 0.00 0.00 71 1018.4
20260902165428 91 160 2.0 8.0 0.00 0.00 0.00 70 1018.7
20260902164923 91 205 4.0 8.0 0.00 0.00 0.00 69 1018.5
20260902164418 91 188 4.0 5.0 0.00 0.00 0.00 69 1018.6
20260902163917 91 170 1.0 2.0 0.00 0.00 0.00 68 1018.6
20260902163412 91 121 3.0 3.0 0.00 0.00 0.00 68 1018.5
20260902162909 91 143 1.0 2.0 0.00 0.00 0.00 68 1018.7
20260902162405 91 233 1.0 2.0 0.00 0.00 0.00 69 1018.7
20260902161900 91 196 4.0 5.0 0.00 0.00 0.00 69 1018.9
20260902161355 91 192 0.0 2.0 0.00 0.00 0.00 69 1018.8
20260902160851 91 219 2.0 3.0 0.00 0.00 0.00 69 1018.8
20260902160347 90 161 1.0 3.0 0.00 0.00 0.00 69 1018.7
20260902155844 90 145 1.0 2.0 0.00 0.00 0.00 70 1018.9
20260902155343 90 207 1.0 2.0 0.00 0.00 0.00 70 1019.0
20260902154839 90 166 0.0 2.0 0.00 0.00 0.00 71 1019.1
20260902154335 90 155 2.0 3.0 0.00 0.00 0.00 71 1019.0
20260902153833 90 194 2.0 3.0 0.00 0.00 0.00 72 1019.1
20260902153332 89 183 2.0 3.0 0.00 0.00 0.00 73 1019.0
20260902152829 89 151 2.0 2.0 0.00 0.00 0.00 74 1018.9
20260902152324 88 181 2.0 2.0 0.00 0.00 0.00 74 1019.2
20260902151819 88 171 0.0 1.0 0.00 0.00 0.00 76 1019.1
20260902151315 88 148 0.0 2.0 0.00 0.00 0.00 76 1019.1
20260902150809 88 163 0.0 2.0 0.00 0.00 0.00 77 1019.0
20260902150306 88 193 2.0 3.0 0.00 0.00 0.00 77 1019.2
20260902145805 87 159 1.0 1.0 0.00 0.00 0.00 78 1019.2
20260902145300 87 162 0.0 1.0 0.00 0.00 0.00 78 1018.9
20260902144756 87 164 0.0 1.0 0.00 0.00 0.00 79 1019.2
20260902144251 87 174 1.0 2.0 0.00 0.00 0.00 80 1019.2
20260902143746 87 121 1.0 1.0 0.00 0.00 0.00 80 1019.0
20260902143241 86 135 0.0 5.0 0.00 0.00 0.00 81 1018.7
20260902142736 86 50 1.0 3.0 0.00 0.00 0.00 82 1019.0
20260902142232 86 189 0.0 3.0 0.00 0.00 0.00 84 1019.1
20260902141727 86 73 3.0 5.0 0.00 0.00 0.00 87 1019.2
20260902141223 85 162 0.0 2.0 0.00 0.00 0.00 87 1019.2
20260902140712 85 209 1.0 2.0 0.00 0.00 0.00 89 1019.1
20260902140207 84 126 0.0 2.0 0.00 0.00 0.00 90 1018.9
20260902135706 84 153 0.0 1.0 0.00 0.00 0.00 91 1019.1
20260902135202 83 148 0.0 2.0 0.00 0.00 0.00 92 1019.0
20260902134656 84 170 0.0 1.0 0.00 0.00 0.00 93 1019.0
20260902134156 84 141 0.0 1.0 0.00 0.00 0.00 93 1018.9
20260902133652 83 145 0.0 2.0 0.00 0.00 0.00 94 1018.9
20260902133151 83 138 0.0 0.0 0.00 0.00 0.00 95 1019.1
20260902132646 82 135 0.0 3.0 0.00 0.00 0.00 96 1018.8
20260902132142 82 138 0.0 0.0 0.00 0.00 0.00 96 1019.0
20260902131637 82 136 0.0 1.0 0.00 0.00 0.00 97 1019.1
20260902131133 81 135 0.0 0.0 0.00 0.00 0.00 97 1018.8
20260902130629 81 128 0.0 1.0 0.00 0.00 0.00 98 1018.9
20260902130124 80 123 0.0 0.0 0.00 0.00 0.00 98 1018.8
20260902125619 80 123 0.0 0.0 0.00 0.00 0.00 98 1018.9
20260902125114 79 122 0.0 0.0 0.00 0.00 0.00 98 1018.8
20260902124612 79 121 0.0 0.0 0.00 0.00 0.00 98 1019.0
20260902124111 78 106 0.0 0.0 0.00 0.00 0.00 97 1018.8
20260902123608 78 120 0.0 0.0 0.00 0.00 0.00 96 1018.9
20260902123102 78 120 0.0 1.0 0.00 0.00 0.00 96 1018.8
20260902122601 77 130 0.0 0.0 0.00 0.00 0.00 96 1018.8
20260902122052 77 162 0.0 0.0 0.00 0.00 0.00 96 1018.9
20260902121551 77 117 0.0 0.0 0.00 0.00 0.00 95 1018.9
20260902121046 77 117 0.0 0.0 0.00 0.00 0.00 95 1018.8
20260902120543 76 115 0.0 0.0 0.00 0.00 0.00 95 1018.8
20260902120038 76 114 0.0 0.0 0.00 0.00 0.00 95 1019.0
20260902115538 76 110 0.0 0.0 0.00 0.00 0.00 95 1019.0
20260902115035 76 99 0.0 0.0 0.00 0.00 0.00 95 1019.0
20260902114531 76 98 0.0 0.0 0.00 0.00 0.00 95 1019.0
20260902114031 76 119 0.0 0.0 0.00 0.00 0.00 95 1018.9
20260902113526 75 112 0.0 0.0 0.00 0.00 0.00 95 1018.7
20260902113021 75 125 0.0 0.0 0.00 0.00 0.00 95 1018.8
20260902112517 75 15 0.0 1.0 0.00 0.00 0.00 95 1018.7
20260902112013 75 216 0.0 0.0 0.00 0.00 0.00 95 1018.6
20260902111509 75 216 0.0 0.0 0.00 0.00 0.00 95 1018.6
20260902111005 75 213 0.0 0.0 0.00 0.00 0.00 95 1018.6
20260902110501 75 218 0.0 0.0 0.00 0.00 0.00 95 1018.5
20260902105955 75 221 0.0 0.0 0.00 0.00 0.00 95 1018.3
20260902105451 75 230 0.0 0.0 0.00 0.00 0.00 95 1018.4
20260902104945 75 232 0.0 0.0 0.00 0.00 0.00 95 1018.3
20260902104441 75 239 0.0 0.0 0.00 0.00 0.00 95 1018.4
20260902103940 75 233 0.0 0.0 0.00 0.00 0.00 95 1018.3
20260902103436 75 232 0.0 0.0 0.00 0.00 0.00 95 1018.4
20260902102931 75 225 0.0 0.0 0.00 0.00 0.00 95 1018.4
20260902102428 75 225 0.0 0.0 0.00 0.00 0.00 95 1018.3
20260902101924 75 225 0.0 0.0 0.00 0.00 0.00 95 1018.2
20260902101424 75 224 0.0 0.0 0.00 0.00 0.00 94 1018.2
20260902100918 75 224 0.0 0.0 0.00 0.00 0.00 94 1018.2
20260902100418 75 224 0.0 0.0 0.00 0.00 0.00 94 1018.2
20260902095913 75 223 0.0 0.0 0.00 0.00 0.00 94 1017.8
20260902095407 75 225 0.0 0.0 0.00 0.00 0.00 94 1018.1
20260902094906 75 227 0.0 0.0 0.00 0.00 0.00 94 1018.0
20260902094403 75 228 0.0 0.0 0.00 0.00 0.00 94 1018.0
20260902093903 75 221 0.0 0.0 0.00 0.00 0.00 94 1018.0